Location: Newark
(44.9333°N, 0.5667°E)
Time: 08:28:09
(UTC+00:00)

Oscar 11 - Pass Details

Date: 05 March 2020
Orbit: 612 x 626 km, 97.6° (Epoch: 04 April)

Event Time Altitude Azimuth Distance (km) Brightness Sun altitude
Rises 19:15:06 0° 212° (SSW) 2,899 10.8 -15.6°
Reaches altitude 10° 19:18:13 10° 236° (WSW) 1,997 10.4 -16.2°
Maximum altitude 19:20:38 15° 270° (W) 1,717 10.5 -16.6°
Drops below altitude 10° 19:23:03 10° 304° (NW) 2,003 10.7 -17.0°
Sets 19:26:11 0° 329° (NNW) 2,913 11.1 -17.6°
